Location: Catacaguana
(10.4120°N, 66.7591°W)
Time: 05:05:14
(UTC+00:00)

H-2A R/B - Pass Details

Date: 27 May 2022
Orbit: 575 x 653 km, 98.5° (Epoch: 24 June)

Event Time Altitude Azimuth Distance (km) Brightness Sun altitude
Rises 00:04:42 0° 16° (NNE) 2,787 5.6 -18.9°
Reaches altitude 10° 00:06:50 10° 18° (NNE) 1,895 4.6 -19.4°
Maximum altitude 00:10:55 69° 102° (ESE) 631 1.8 -20.3°
Enters shadow 00:12:28 37° 174° (S) 930 2.7 -20.6°
